Tracking 18843 objects as of 20-November-2017
HD Live streaming from Space Station
objects crossing your sky now

FENGYUN 1C DEB

Track FENGYUN 1C DEB now!
10-day predictions


NORAD ID: 36194
Int'l Code: 1999-025DTT
Perigee: 632.4 km
Apogee: 669.6 km
Inclination: 99.0 °
Period: 97.6 minutes
Semi major axis: 7021 km
RCS: 0.0103 m2 (small)
Launch date: May 10, 1999
Source: People's Republic of China (PRC)
Launch site: Taiyaun Space Center, China (TSC)

Note: This is SATELLITE DEBRIS
aabbcc
Your satellite tracking list
Your tracking list is empty




NASA's NSSDC Master Catalog

Two Line Element Set (TLE):
1 36194U 99025DTT 17321.97601723  .00007153  00000-0  10558-2 0  9994
2 36194  99.0313 230.8236 0026547 198.4236 161.6011 14.75406342519536
Source of the keplerian elements: AFSPC